| time (UTC) | temp C | wind direction | speed KPH | gust KPH | rain 1hr cm | rain 24hr cm | rain mn cm | humidity % | barometer mb |
| 20260905091405 | 22 | 355 | 1.6 | 8.0 | 0.00 | 0.00 | 0.00 | 70 | 1019.5 |
| 20260905090905 | 22 | 308 | 3.2 | 8.0 | 0.00 | 0.00 | 0.00 | 72 | 1019.5 |
| 20260905090405 | 22 | 279 | 4.8 | 9.7 | 0.00 | 0.00 | 0.00 | 72 | 1019.4 |
| 20260905085905 | 22 | 301 | 8.0 | 9.7 | 0.00 | 0.00 | 0.00 | 72 | 1019.3 |
| 20260905085405 | 21 | 295 | 4.8 | 11.3 | 0.00 | 0.00 | 0.00 | 73 | 1019.3 |
| 20260905084905 | 21 | 316 | 3.2 | 9.7 | 0.00 | 0.00 | 0.00 | 75 | 1019.3 |
| 20260905084405 | 21 | 316 | 3.2 | 11.3 | 0.00 | 0.00 | 0.00 | 75 | 1019.3 |
| 20260905083905 | 21 | 15 | 1.6 | 8.0 | 0.00 | 0.00 | 0.00 | 75 | 1019.3 |
| 20260905083405 | 21 | 296 | 4.8 | 12.9 | 0.00 | 0.00 | 0.00 | 75 | 1019.3 |
| 20260905082405 | 21 | 296 | 4.8 | 12.9 | 0.00 | 0.00 | 0.00 | 74 | 1019.2 |
| 20260905081405 | 21 | 335 | 4.8 | 9.7 | 0.00 | 0.00 | 0.00 | 73 | 1019.2 |
| 20260905080905 | 21 | 224 | 1.6 | 4.8 | 0.00 | 0.00 | 0.00 | 73 | 1019.2 |
| 20260905080405 | 21 | 318 | 1.6 | 4.8 | 0.00 | 0.00 | 0.00 | 74 | 1019.2 |
| 20260905075905 | 21 | 323 | 1.6 | 4.8 | 0.00 | 0.00 | 0.00 | 74 | 1019.2 |
| 20260905075405 | 21 | 306 | 3.2 | 4.8 | 0.00 | 0.00 | 0.00 | 74 | 1019.1 |
| 20260905074905 | 21 | 344 | 1.6 | 4.8 | 0.00 | 0.00 | 0.00 | 75 | 1019.0 |
| 20260905074405 | 21 | 336 | 4.8 | 8.0 | 0.00 | 0.00 | 0.00 | 74 | 1019.1 |
| 20260905073905 | 21 | 105 | 0.0 | 0.0 | 0.00 | 0.00 | 0.00 | 75 | 1019.0 |
| 20260905073405 | 21 | 105 | 0.0 | 0.0 | 0.00 | 0.00 | 0.00 | 76 | 1018.9 |
| 20260905072905 | 21 | 105 | 0.0 | 0.0 | 0.00 | 0.00 | 0.00 | 76 | 1019.0 |
| 20260905072406 | 20 | 105 | 0.0 | 3.2 | 0.00 | 0.00 | 0.00 | 77 | 1019.1 |
| 20260905071905 | 20 | 105 | 0.0 | 1.6 | 0.00 | 0.00 | 0.00 | 78 | 1019.0 |
| 20260905071405 | 20 | 105 | 0.0 | 0.0 | 0.00 | 0.00 | 0.00 | 79 | 1018.9 |
| 20260905070905 | 20 | 105 | 0.0 | 0.0 | 0.00 | 0.00 | 0.00 | 79 | 1018.7 |
| 20260905070405 | 20 | 105 | 0.0 | 0.0 | 0.00 | 0.00 | 0.00 | 79 | 1018.7 |
| 20260905065905 | 20 | 105 | 0.0 | 0.0 | 0.00 | 0.00 | 0.00 | 79 | 1018.7 |
| 20260905065405 | 19 | 105 | 0.0 | 0.0 | 0.00 | 0.00 | 0.00 | 79 | 1018.7 |
| 20260905064905 | 19 | 105 | 0.0 | 0.0 | 0.00 | 0.00 | 0.00 | 79 | 1018.6 |
| 20260905063905 | 19 | 105 | 0.0 | 0.0 | 0.00 | 0.00 | 0.00 | 79 | 1018.6 |
| 20260905063405 | 19 | 105 | 0.0 | 0.0 | 0.00 | 0.00 | 0.00 | 79 | 1018.5 |
| 20260905062904 | 19 | 105 | 0.0 | 0.0 | 0.00 | 0.00 | 0.00 | 79 | 1018.2 |
| 20260905061905 | 19 | 105 | 0.0 | 0.0 | 0.00 | 0.00 | 0.00 | 78 | 1018.1 |
| 20260905061405 | 20 | 105 | 0.0 | 0.0 | 0.00 | 0.00 | 0.00 | 78 | 1018.0 |
| 20260905060905 | 20 | 105 | 0.0 | 1.6 | 0.00 | 0.00 | 0.00 | 78 | 1018.1 |
| 20260905060405 | 20 | 105 | 0.0 | 0.0 | 0.00 | 0.00 | 0.00 | 78 | 1018.0 |
| 20260905055904 | 20 | 105 | 0.0 | 0.0 | 0.00 | 0.00 | 0.00 | 78 | 1017.9 |
| 20260905054905 | 20 | 105 | 0.0 | 0.0 | 0.00 | 0.00 | 0.00 | 77 | 1017.8 |
| 20260905054404 | 20 | 105 | 0.0 | 0.0 | 0.00 | 0.00 | 0.00 | 77 | 1017.7 |
| 20260905053405 | 20 | 105 | 0.0 | 1.6 | 0.00 | 0.00 | 0.00 | 77 | 1017.7 |
| 20260905052905 | 20 | 105 | 0.0 | 0.0 | 0.00 | 0.00 | 0.00 | 77 | 1017.7 |
| 20260905052405 | 20 | 105 | 0.0 | 0.0 | 0.00 | 0.00 | 0.00 | 77 | 1017.8 |
| 20260905051405 | 20 | 105 | 0.0 | 0.0 | 0.00 | 0.00 | 0.00 | 75 | 1017.6 |
| 20260905050904 | 20 | 105 | 0.0 | 0.0 | 0.00 | 0.00 | 0.00 | 75 | 1017.6 |
| 20260905050405 | 20 | 105 | 0.0 | 0.0 | 0.00 | 0.00 | 0.00 | 75 | 1017.5 |
| 20260905045905 | 20 | 105 | 0.0 | 0.0 | 0.00 | 0.00 | 0.00 | 75 | 1017.6 |
| 20260905044904 | 21 | 105 | 0.0 | 0.0 | 0.00 | 0.00 | 0.00 | 74 | 1017.6 |
| 20260905044405 | 21 | 105 | 0.0 | 0.0 | 0.00 | 0.00 | 0.00 | 74 | 1017.5 |
| 20260905043905 | 21 | 105 | 0.0 | 0.0 | 0.00 | 0.00 | 0.00 | 73 | 1017.4 |
| 20260905043405 | 21 | 105 | 0.0 | 3.2 | 0.00 | 0.00 | 0.00 | 73 | 1017.6 |
| 20260905042905 | 21 | 105 | 1.6 | 3.2 | 0.00 | 0.00 | 0.00 | 72 | 1017.5 |
| 20260905042404 | 21 | 105 | 0.0 | 0.0 | 0.00 | 0.00 | 0.00 | 72 | 1017.5 |
| 20260905041905 | 21 | 105 | 0.0 | 0.0 | 0.00 | 0.00 | 0.00 | 73 | 1017.5 |
| 20260905040905 | 21 | 105 | 0.0 | 0.0 | 0.00 | 0.00 | 0.00 | 72 | 1017.6 |
| 20260905040404 | 21 | 105 | 0.0 | 0.0 | 0.00 | 0.00 | 0.00 | 72 | 1017.6 |
| 20260905035905 | 21 | 105 | 0.0 | 0.0 | 0.00 | 0.00 | 0.00 | 72 | 1017.6 |
| 20260905035405 | 21 | 105 | 0.0 | 0.0 | 0.00 | 0.00 | 0.00 | 71 | 1017.6 |
| 20260905034905 | 21 | 105 | 0.0 | 0.0 | 0.00 | 0.00 | 0.00 | 71 | 1017.5 |
| 20260905034405 | 21 | 105 | 0.0 | 0.0 | 0.00 | 0.00 | 0.00 | 71 | 1017.5 |
| 20260905033405 | 21 | 105 | 0.0 | 0.0 | 0.00 | 0.00 | 0.00 | 71 | 1017.5 |
| 20260905032904 | 22 | 105 | 0.0 | 1.6 | 0.00 | 0.00 | 0.00 | 71 | 1017.6 |
| 20260905032405 | 22 | 105 | 0.0 | 0.0 | 0.00 | 0.00 | 0.00 | 71 | 1017.6 |
| 20260905031905 | 22 | 105 | 0.0 | 0.0 | 0.00 | 0.00 | 0.00 | 71 | 1017.7 |
| 20260905031404 | 22 | 105 | 0.0 | 0.0 | 0.00 | 0.00 | 0.00 | 71 | 1017.8 |
| 20260905030904 | 22 | 105 | 0.0 | 0.0 | 0.00 | 0.00 | 0.00 | 72 | 1017.8 |
| 20260905025905 | 22 | 105 | 0.0 | 0.0 | 0.00 | 0.00 | 0.00 | 71 | 1017.8 |
| 20260905025405 | 22 | 105 | 0.0 | 0.0 | 0.00 | 0.00 | 0.00 | 71 | 1017.8 |
| 20260905024904 | 22 | 105 | 0.0 | 0.0 | 0.00 | 0.00 | 0.00 | 71 | 1017.8 |
| 20260905024405 | 22 | 105 | 0.0 | 0.0 | 0.00 | 0.00 | 0.00 | 71 | 1017.9 |
| 20260905023904 | 22 | 105 | 0.0 | 0.0 | 0.00 | 0.00 | 0.00 | 71 | 1017.9 |
| 20260905023405 | 22 | 105 | 0.0 | 0.0 | 0.00 | 0.00 | 0.00 | 70 | 1017.9 |
| 20260905022905 | 22 | 105 | 0.0 | 0.0 | 0.00 | 0.00 | 0.00 | 69 | 1017.8 |
| 20260905022404 | 22 | 105 | 0.0 | 0.0 | 0.00 | 0.00 | 0.00 | 68 | 1017.9 |
| 20260905021905 | 22 | 105 | 0.0 | 0.0 | 0.00 | 0.00 | 0.00 | 68 | 1017.9 |
| 20260905021405 | 23 | 105 | 0.0 | 0.0 | 0.00 | 0.00 | 0.00 | 67 | 1018.0 |
| 20260905020904 | 23 | 105 | 0.0 | 0.0 | 0.00 | 0.00 | 0.00 | 67 | 1017.9 |
| 20260905020405 | 23 | 105 | 0.0 | 0.0 | 0.00 | 0.00 | 0.00 | 66 | 1017.8 |
| 20260905015904 | 23 | 105 | 0.0 | 0.0 | 0.00 | 0.00 | 0.00 | 66 | 1017.8 |
| 20260905015405 | 23 | 105 | 0.0 | 1.6 | 0.00 | 0.00 | 0.00 | 66 | 1017.9 |
| 20260905014905 | 24 | 105 | 0.0 | 1.6 | 0.00 | 0.00 | 0.00 | 65 | 1017.9 |
| 20260905014405 | 24 | 105 | 0.0 | 0.0 | 0.00 | 0.00 | 0.00 | 64 | 1017.9 |
| 20260905013904 | 24 | 105 | 0.0 | 0.0 | 0.00 | 0.00 | 0.00 | 64 | 1017.9 |
| 20260905013404 | 24 | 105 | 0.0 | 0.0 | 0.00 | 0.00 | 0.00 | 64 | 1018.0 |
| 20260905012905 | 24 | 105 | 0.0 | 1.6 | 0.00 | 0.00 | 0.00 | 63 | 1018.1 |
| 20260905012404 | 24 | 105 | 0.0 | 0.0 | 0.00 | 0.00 | 0.00 | 62 | 1018.1 |
| 20260905011904 | 24 | 105 | 0.0 | 8.0 | 0.00 | 0.00 | 0.00 | 62 | 1018.1 |
| 20260905011405 | 24 | 105 | 4.8 | 4.8 | 0.00 | 0.00 | 0.00 | 63 | 1018.1 |
| 20260905010905 | 24 | 105 | 0.0 | 0.0 | 0.00 | 0.00 | 0.00 | 63 | 1018.1 |
| 20260905005405 | 25 | 105 | 0.0 | 0.0 | 0.00 | 0.00 | 0.00 | 63 | 1018.0 |
| 20260905004904 | 25 | 105 | 0.0 | 0.0 | 0.00 | 0.00 | 0.00 | 63 | 1018.0 |
| 20260905004405 | 25 | 105 | 0.0 | 0.0 | 0.00 | 0.00 | 0.00 | 62 | 1018.1 |
| 20260905003404 | 25 | 105 | 4.8 | 4.8 | 0.00 | 0.00 | 0.00 | 62 | 1018.2 |
| 20260905002905 | 25 | 105 | 0.0 | 1.6 | 0.00 | 0.00 | 0.00 | 62 | 1018.3 |
| 20260905002405 | 25 | 105 | 0.0 | 0.0 | 0.00 | 0.00 | 0.00 | 62 | 1018.3 |
| 20260905001405 | 25 | 105 | 0.0 | 0.0 | 0.00 | 0.00 | 0.00 | 62 | 1018.3 |
| 20260905000905 | 25 | 105 | 0.0 | 0.0 | 0.00 | 0.00 | 0.00 | 62 | 1018.4 |
| 20260904235904 | 25 | 105 | 0.0 | 0.0 | 0.00 | 0.00 | 0.00 | 60 | 1018.5 |
| 20260904235404 | 26 | 105 | 0.0 | 3.2 | 0.00 | 0.00 | 0.00 | 59 | 1018.4 |
| 20260904234905 | 26 | 105 | 3.2 | 4.8 | 0.00 | 0.00 | 0.00 | 59 | 1018.3 |
| 20260904234404 | 26 | 105 | 1.6 | 4.8 | 0.00 | 0.00 | 0.00 | 58 | 1018.4 |
| 20260904233905 | 26 | 105 | 0.0 | 0.0 | 0.00 | 0.00 | 0.00 | 56 | 1018.4 |
| 20260904232905 | 26 | 105 | 0.0 | 3.2 | 0.00 | 0.00 | 0.00 | 56 | 1018.6 |
| 20260904232404 | 26 | 105 | 0.0 | 1.6 | 0.00 | 0.00 | 0.00 | 52 | 1018.7 |
| 20260904231404 | 26 | 105 | 0.0 | 0.0 | 0.00 | 0.00 | 0.00 | 55 | 1018.6 |
| 20260904230904 | 26 | 105 | 0.0 | 0.0 | 0.00 | 0.00 | 0.00 | 54 | 1018.6 |
| 20260904230405 | 26 | 105 | 1.6 | 8.0 | 0.00 | 0.00 | 0.00 | 55 | 1018.6 |
| 20260904225905 | 26 | 105 | 4.8 | 9.7 | 0.00 | 0.00 | 0.00 | 55 | 1018.6 |
| 20260904225405 | 26 | 105 | 8.0 | 9.7 | 0.00 | 0.00 | 0.00 | 55 | 1018.6 |
| 20260904224905 | 26 | 104 | 4.8 | 9.7 | 0.00 | 0.00 | 0.00 | 56 | 1018.6 |
| 20260904224405 | 26 | 104 | 3.2 | 9.7 | 0.00 | 0.00 | 0.00 | 56 | 1018.6 |
| 20260904223905 | 26 | 104 | 6.4 | 11.3 | 0.00 | 0.00 | 0.00 | 56 | 1018.6 |
| 20260904223404 | 26 | 113 | 4.8 | 8.0 | 0.00 | 0.00 | 0.00 | 55 | 1018.6 |
| 20260904222904 | 26 | 113 | 4.8 | 8.0 | 0.00 | 0.00 | 0.00 | 55 | 1018.5 |
| 20260904222404 | 26 | 113 | 0.0 | 1.6 | 0.00 | 0.00 | 0.00 | 56 | 1018.5 |
| 20260904221904 | 26 | 113 | 0.0 | 8.0 | 0.00 | 0.00 | 0.00 | 56 | 1018.6 |
| 20260904221405 | 26 | 113 | 1.6 | 8.0 | 0.00 | 0.00 | 0.00 | 57 | 1018.6 |
| 20260904220905 | 26 | 113 | 4.8 | 9.7 | 0.00 | 0.00 | 0.00 | 57 | 1018.6 |
| 20260904220404 | 27 | 113 | 1.6 | 9.7 | 0.00 | 0.00 | 0.00 | 57 | 1018.6 |
| 20260904215404 | 27 | 97 | 8.0 | 11.3 | 0.00 | 0.00 | 0.00 | 56 | 1018.7 |
| 20260904214904 | 27 | 105 | 6.4 | 11.3 | 0.00 | 0.00 | 0.00 | 55 | 1018.7 |
| 20260904213905 | 27 | 114 | 4.8 | 9.7 | 0.00 | 0.00 | 0.00 | 53 | 1018.7 |
| 20260904212904 | 28 | 114 | 1.6 | 8.0 | 0.00 | 0.00 | 0.00 | 51 | 1018.8 |
| 20260904212404 | 28 | 114 | 0.0 | 1.6 | 0.00 | 0.00 | 0.00 | 50 | 1018.8 |
| 20260904211904 | 28 | 114 | 1.6 | 11.3 | 0.00 | 0.00 | 0.00 | 49 | 1018.8 |
| 20260904211404 | 29 | 102 | 4.8 | 12.9 | 0.00 | 0.00 | 0.00 | 47 | 1018.9 |
| 20260904210907 | 29 | 99 | 1.6 | 9.7 | 0.00 | 0.00 | 0.00 | 45 | 1019.1 |
| 20260904210404 | 29 | 292 | 0.0 | 1.6 | 0.00 | 0.00 | 0.00 | 41 | 1019.0 |
| 20260904205904 | 30 | 292 | 0.0 | 0.0 | 0.00 | 0.00 | 0.00 | 40 | 1018.9 |
| 20260904205404 | 30 | 242 | 0.0 | 1.6 | 0.00 | 0.00 | 0.00 | 40 | 1018.8 |
| 20260904204904 | 30 | 242 | 0.0 | 9.7 | 0.00 | 0.00 | 0.00 | 40 | 1018.8 |
| 20260904204405 | 29 | 242 | 1.6 | 8.0 | 0.00 | 0.00 | 0.00 | 40 | 1018.8 |
| 20260904203905 | 29 | 239 | 3.2 | 12.9 | 0.00 | 0.00 | 0.00 | 40 | 1018.9 |
| 20260904202904 | 29 | 240 | 0.0 | 1.6 | 0.00 | 0.00 | 0.00 | 43 | 1018.9 |
| 20260904202404 | 29 | 240 | 0.0 | 0.0 | 0.00 | 0.00 | 0.00 | 43 | 1018.8 |
| 20260904201904 | 29 | 240 | 0.0 | 11.3 | 0.00 | 0.00 | 0.00 | 43 | 1019.0 |
| 20260904201405 | 29 | 205 | 0.0 | 11.3 | 0.00 | 0.00 | 0.00 | 44 | 1018.9 |
| 20260904200405 | 28 | 224 | 0.0 | 1.6 | 0.00 | 0.00 | 0.00 | 47 | 1018.8 |
| 20260904195905 | 28 | 224 | 0.0 | 0.0 | 0.00 | 0.00 | 0.00 | 49 | 1018.8 |
| 20260904195404 | 28 | 224 | 0.0 | 1.6 | 0.00 | 0.00 | 0.00 | 49 | 1018.8 |
| 20260904194904 | 28 | 224 | 0.0 | 0.0 | 0.00 | 0.00 | 0.00 | 50 | 1018.8 |
| 20260904194404 | 28 | 224 | 0.0 | 0.0 | 0.00 | 0.00 | 0.00 | 50 | 1018.9 |
| 20260904193404 | 29 | 224 | 0.0 | 0.0 | 0.00 | 0.00 | 0.00 | 50 | 1018.7 |
| 20260904192905 | 29 | 224 | 0.0 | 1.6 | 0.00 | 0.00 | 0.00 | 50 | 1018.7 |
| 20260904192406 | 29 | 153 | 0.0 | 1.6 | 0.00 | 0.00 | 0.00 | 50 | 1018.4 |
| 20260904191406 | 29 | 277 | 0.0 | 1.6 | 0.00 | 0.00 | 0.00 | 52 | 1018.6 |
| 20260904190905 | 29 | 284 | 0.0 | 0.0 | 0.00 | 0.00 | 0.00 | 52 | 1018.9 |
| 20260904190406 | 29 | 284 | 0.0 | 0.0 | 0.00 | 0.00 | 0.00 | 52 | 1018.8 |
| 20260904185906 | 29 | 251 | 1.6 | 8.0 | 0.00 | 0.00 | 0.00 | 53 | 1018.4 |
| 20260904185406 | 29 | 241 | 1.6 | 11.3 | 0.00 | 0.00 | 0.00 | 53 | 1018.4 |
| 20260904184906 | 29 | 229 | 0.0 | 9.7 | 0.00 | 0.00 | 0.00 | 53 | 1018.6 |
| 20260904184405 | 29 | 240 | 0.0 | 0.0 | 0.00 | 0.00 | 0.00 | 53 | 1018.6 |
| 20260904183906 | 29 | 230 | 0.0 | 1.6 | 0.00 | 0.00 | 0.00 | 53 | 1018.5 |
| 20260904183408 | 29 | 194 | 0.0 | 3.2 | 0.00 | 0.00 | 0.00 | 53 | 1018.8 |
| 20260904182405 | 29 | 125 | 1.6 | 12.9 | 0.00 | 0.00 | 0.00 | 53 | 1018.9 |
| 20260904181905 | 29 | 96 | 1.6 | 8.0 | 0.00 | 0.00 | 0.00 | 53 | 1018.7 |
| 20260904180905 | 29 | 159 | 1.6 | 12.9 | 0.00 | 0.00 | 0.00 | 53 | 1019.2 |
| 20260904180406 | 29 | 110 | 0.0 | 0.0 | 0.00 | 0.00 | 0.00 | 53 | 1019.4 |
| 20260904175906 | 29 | 110 | 0.0 | 0.0 | 0.00 | 0.00 | 0.00 | 53 | 1019.5 |
| 20260904174906 | 30 | 135 | 1.6 | 8.0 | 0.00 | 0.00 | 0.00 | 52 | 1019.1 |
| 20260904174405 | 30 | 43 | 0.0 | 4.8 | 0.00 | 0.00 | 0.00 | 52 | 1018.9 |
| 20260904172905 | 30 | 72 | 1.6 | 12.9 | 0.00 | 0.00 | 0.00 | 50 | 1019.9 |
| 20260904171905 | 30 | 94 | 0.0 | 8.0 | 0.00 | 0.00 | 0.00 | 50 | 1020.0 |
| 20260904171406 | 30 | 47 | 1.6 | 14.5 | 0.00 | 0.00 | 0.00 | 50 | 1020.0 |
| 20260904170905 | 30 | 65 | 1.6 | 11.3 | 0.00 | 0.00 | 0.00 | 50 | 1019.7 |
| 20260904170405 | 30 | 69 | 0.0 | 11.3 | 0.00 | 0.00 | 0.00 | 50 | 1019.1 |
| 20260904165905 | 30 | 75 | 1.6 | 9.7 | 0.00 | 0.00 | 0.00 | 49 | 1018.9 |
| 20260904165405 | 30 | 87 | 0.0 | 1.6 | 0.00 | 0.00 | 0.00 | 49 | 1018.7 |
| 20260904164905 | 30 | 87 | 9.7 | 19.3 | 0.00 | 0.00 | 0.00 | 48 | 1018.8 |
| 20260904164405 | 30 | 19 | 3.2 | 9.7 | 0.00 | 0.00 | 0.00 | 48 | 1018.5 |
| 20260904163905 | 30 | 109 | 1.6 | 8.0 | 0.00 | 0.00 | 0.00 | 48 | 1018.2 |
| 20260904163406 | 30 | 19 | 3.2 | 9.7 | 0.00 | 0.00 | 0.00 | 48 | 1018.3 |
| 20260904162905 | 30 | 340 | 1.6 | 11.3 | 0.00 | 0.00 | 0.00 | 48 | 1018.5 |
| 20260904162405 | 31 | 120 | 4.8 | 12.9 | 0.00 | 0.00 | 0.00 | 47 | 1019.1 |
| 20260904161906 | 31 | 80 | 0.0 | 8.0 | 0.00 | 0.00 | 0.00 | 47 | 1020.0 |
| 20260904161405 | 31 | 74 | 0.0 | 4.8 | 0.00 | 0.00 | 0.00 | 47 | 1020.2 |
| 20260904160905 | 31 | 74 | 0.0 | 4.8 | 0.00 | 0.00 | 0.00 | 47 | 1020.1 |
| 20260904160405 | 31 | 74 | 0.0 | 1.6 | 0.00 | 0.00 | 0.00 | 46 | 1019.9 |
| 20260904155905 | 31 | 74 | 0.0 | 9.7 | 0.00 | 0.00 | 0.00 | 47 | 1019.9 |
| 20260904155405 | 31 | 80 | 3.2 | 11.3 | 0.00 | 0.00 | 0.00 | 46 | 1019.6 |
| 20260904154905 | 31 | 110 | 1.6 | 8.0 | 0.00 | 0.00 | 0.00 | 46 | 1019.6 |
| 20260904153905 | 31 | 228 | 0.0 | 0.0 | 0.00 | 0.00 | 0.00 | 47 | 1019.6 |
| 20260904153405 | 31 | 228 | 0.0 | 0.0 | 0.00 | 0.00 | 0.00 | 46 | 1019.6 |
| 20260904152905 | 31 | 228 | 0.0 | 0.0 | 0.00 | 0.00 | 0.00 | 47 | 1019.8 |
| 20260904152405 | 31 | 228 | 0.0 | 3.2 | 0.00 | 0.00 | 0.00 | 47 | 1019.6 |
| 20260904150905 | 31 | 145 | 0.0 | 8.0 | 0.00 | 0.00 | 0.00 | 47 | 1019.6 |
| 20260904145405 | 30 | 90 | 0.0 | 0.0 | 0.00 | 0.00 | 0.00 | 47 | 1019.8 |
| 20260904144405 | 30 | 90 | 0.0 | 1.6 | 0.00 | 0.00 | 0.00 | 49 | 1019.8 |
| 20260904143905 | 30 | 44 | 0.0 | 3.2 | 0.00 | 0.00 | 0.00 | 49 | 1019.6 |
| 20260904143405 | 30 | 294 | 0.0 | 4.8 | 0.00 | 0.00 | 0.00 | 50 | 1019.4 |
| 20260904142906 | 30 | 274 | 0.0 | 9.7 | 0.00 | 0.00 | 0.00 | 49 | 1019.3 |
| 20260904141905 | 31 | 168 | 0.0 | 3.2 | 0.00 | 0.00 | 0.00 | 46 | 1020.6 |
| 20260904141405 | 31 | 116 | 0.0 | 1.6 | 0.00 | 0.00 | 0.00 | 48 | 1021.1 |
| 20260904140905 | 30 | 116 | 0.0 | 4.8 | 0.00 | 0.00 | 0.00 | 48 | 1021.0 |
| 20260904140406 | 30 | 104 | 1.6 | 11.3 | 0.00 | 0.00 | 0.00 | 49 | 1021.0 |
| 20260904135905 | 30 | 40 | 1.6 | 9.7 | 0.00 | 0.00 | 0.00 | 49 | 1021.0 |
| 20260904135405 | 30 | 115 | 0.0 | 3.2 | 0.00 | 0.00 | 0.00 | 49 | 1021.0 |
| 20260904134905 | 30 | 114 | 1.6 | 12.9 | 0.00 | 0.00 | 0.00 | 49 | 1020.8 |
| 20260904134405 | 30 | 104 | 1.6 | 14.5 | 0.00 | 0.00 | 0.00 | 49 | 1020.8 |
| 20260904133905 | 30 | 113 | 1.6 | 14.5 | 0.00 | 0.00 | 0.00 | 50 | 1021.0 |
| 20260904133405 | 30 | 109 | 3.2 | 16.1 | 0.00 | 0.00 | 0.00 | 49 | 1021.0 |
| 20260904132905 | 30 | 112 | 4.8 | 19.3 | 0.00 | 0.00 | 0.00 | 50 | 1020.8 |
| 20260904132405 | 30 | 127 | 3.2 | 19.3 | 0.00 | 0.00 | 0.00 | 51 | 1020.9 |
| 20260904131905 | 30 | 149 | 0.0 | 8.0 | 0.00 | 0.00 | 0.00 | 52 | 1020.6 |
| 20260904130905 | 29 | 161 | 0.0 | 14.5 | 0.00 | 0.00 | 0.00 | 54 | 1020.6 |
| 20260904130406 | 29 | 150 | 3.2 | 9.7 | 0.00 | 0.00 | 0.00 | 53 | 1020.5 |
| 20260904125905 | 29 | 126 | 4.8 | 14.5 | 0.00 | 0.00 | 0.00 | 52 | 1020.6 |
| 20260904125405 | 29 | 128 | 1.6 | 9.7 | 0.00 | 0.00 | 0.00 | 52 | 1020.8 |
| 20260904124405 | 29 | 151 | 0.0 | 9.7 | 0.00 | 0.00 | 0.00 | 51 | 1020.7 |
| 20260904123905 | 29 | 151 | 1.6 | 9.7 | 0.00 | 0.00 | 0.00 | 51 | 1020.7 |
| 20260904123405 | 30 | 145 | 1.6 | 11.3 | 0.00 | 0.00 | 0.00 | 50 | 1020.8 |
| 20260904122905 | 30 | 100 | 3.2 | 14.5 | 0.00 | 0.00 | 0.00 | 50 | 1021.0 |
| 20260904122405 | 29 | 58 | 1.6 | 8.0 | 0.00 | 0.00 | 0.00 | 51 | 1020.9 |
| 20260904121905 | 29 | 85 | 3.2 | 14.5 | 0.00 | 0.00 | 0.00 | 51 | 1020.9 |
| 20260904121406 | 29 | 49 | 6.4 | 16.1 | 0.00 | 0.00 | 0.00 | 51 | 1021.1 |
| 20260904120405 | 28 | 266 | 0.0 | 8.0 | 0.00 | 0.00 | 0.00 | 53 | 1020.5 |
| 20260904115405 | 27 | 195 | 0.0 | 0.0 | 0.00 | 0.00 | 0.00 | 56 | 1020.7 |
| 20260904114905 | 26 | 195 | 0.0 | 0.0 | 0.00 | 0.00 | 0.00 | 57 | 1020.8 |
| 20260904114405 | 26 | 195 | 0.0 | 0.0 | 0.00 | 0.00 | 0.00 | 57 | 1020.7 |
| 20260904113905 | 26 | 285 | 0.0 | 1.6 | 0.00 | 0.00 | 0.00 | 58 | 1021.0 |
| 20260904113404 | 26 | 225 | 6.4 | 11.3 | 0.00 | 0.00 | 0.00 | 59 | 1020.6 |
| 20260904112905 | 26 | 223 | 4.8 | 11.3 | 0.00 | 0.00 | 0.00 | 59 | 1020.4 |
| 20260904112405 | 26 | 206 | 4.8 | 16.1 | 0.00 | 0.00 | 0.00 | 59 | 1020.5 |
| 20260904111905 | 26 | 213 | 11.3 | 19.3 | 0.00 | 0.00 | 0.00 | 58 | 1020.4 |
| 20260904111405 | 26 | 219 | 9.7 | 14.5 | 0.00 | 0.00 | 0.00 | 58 | 1020.7 |
| 20260904110405 | 26 | 211 | 3.2 | 11.3 | 0.00 | 0.00 | 0.00 | 58 | 1021.4 |
| 20260904105905 | 26 | 231 | 0.0 | 4.8 | 0.00 | 0.00 | 0.00 | 58 | 1021.2 |
| 20260904105405 | 25 | 92 | 1.6 | 8.0 | 0.00 | 0.00 | 0.00 | 58 | 1021.9 |
| 20260904104905 | 25 | 355 | 0.0 | 0.0 | 0.00 | 0.00 | 0.00 | 58 | 1021.6 |
| 20260904104405 | 25 | 28 | 1.6 | 9.7 | 0.00 | 0.00 | 0.00 | 59 | 1021.7 |
| 20260904103905 | 25 | 65 | 0.0 | 3.2 | 0.00 | 0.00 | 0.00 | 59 | 1021.6 |
| 20260904103404 | 25 | 23 | 1.6 | 19.3 | 0.00 | 0.00 | 0.00 | 59 | 1021.7 |
| 20260904102905 | 25 | 10 | 11.3 | 19.3 | 0.00 | 0.00 | 0.00 | 58 | 1022.0 |
| 20260904102405 | 25 | 27 | 16.1 | 32.2 | 0.00 | 0.00 | 0.00 | 59 | 1022.0 |
| 20260904101405 | 24 | 268 | 0.0 | 9.7 | 0.00 | 0.00 | 0.00 | 58 | 1020.6 |
| 20260904100405 | 24 | 296 | 4.8 | 11.3 | 0.00 | 0.00 | 0.00 | 59 | 1021.0 |
| 20260904095905 | 24 | 225 | 0.0 | 8.0 | 0.00 | 0.00 | 0.00 | 59 | 1020.9 |
| 20260904095405 | 24 | 228 | 3.2 | 11.3 | 0.00 | 0.00 | 0.00 | 59 | 1020.9 |
| 20260904094905 | 24 | 242 | 4.8 | 14.5 | 0.00 | 0.00 | 0.00 | 58 | 1020.9 |
| 20260904094405 | 24 | 194 | 9.7 | 12.9 | 0.00 | 0.00 | 0.00 | 58 | 1021.0 |
| 20260904093905 | 24 | 50 | 0.0 | 1.6 | 0.00 | 0.00 | 0.00 | 59 | 1021.7 |
| 20260904093405 | 24 | 222 | 0.0 | 1.6 | 0.00 | 0.00 | 0.00 | 58 | 1021.6 |
| 20260904092905 | 24 | 222 | 0.0 | 0.0 | 0.00 | 0.00 | 0.00 | 58 | 1021.5 |
| 20260904092405 | 24 | 222 | 0.0 | 0.0 | 0.00 | 0.00 | 0.00 | 58 | 1021.5 |
| 20260904091905 | 24 | 222 | 0.0 | 0.0 | 0.00 | 0.00 | 0.00 | 58 | 1021.5 |